Voltar ao catálogo

STARLINK-30988

AtivoComunicaçõesVLEO
NORAD 58529·PAYLOAD·🇺🇸 United States

Lançado Dec 7, 2023 de Cape Canaveral Space Force Station

Loading…

Próximas Passagens (próximas 24 horas)

TLE

AtualizadoSource: CelesTrak SupGP

Época: Sep 15, 2026, 02:32 UTC

1 58529C 23191X   26258.10604167  .00053385  00000+0  19338-2 0  2580
2 58529  43.0026 113.6372 0001378 278.9967 343.4660 15.27549437    10

Acompanhe STARLINK-30988 em tempo real com AllMySat

Download on the App Store